星链-5782 (STARLINK-5782 )

导读

STARLINK-5782是美国SpaceX公司星链星座中的一颗低轨互联网卫星,于2023年3月24日由猎鹰9号火箭发射升空。作为星链第二代批量部署的组成部分,它运行在约550公里的近地轨道,配备先进通信技术,为全球提供高速低延迟宽带互联网接入,助力实现偏远地区覆盖,支持移动场景应用,是星链全球大规模星座组网的重要单元。

Basic Information
目录编号:
56034
目录名称:
STARLINK-5782
国际标识:
2023-042BA
轨道中心:
EARTH
卫星名称:
星链-5782
卫星全名:
星链-5782 (STARLINK-5782 )
卫星状态:
在轨 (已飞行1179 天)
发射日期:
2023-03-24 UTC
国别 :
美国 (US)
星等 :
--
Orbit Information
数据来源 国际轨道数据 AOE轨道数据
星历时间 2026-06-15T04:39:11+0800
5小时前
查看轨道信息
2026-06-13T06:00:00+0800
2天前
查看轨道信息
半长轴 6861.196km 6861.187km
偏心率 0.0001356 0.000229
轨道倾角 43.003° 43.006°
近地点辐角 278.690° 264.990°
升交点赤经 216.694° 227.674°
平近点角 81.380° 192.609°
近地点 482.128km 481.478km
远地点 483.99km 484.622km
周期 94.267分钟 94.267分钟
每日圈数 15.275767 15.2758
Detailed Information
固有亮度:
5
最大亮度:
2.5
卫星平台:
Starlink v1.5
覆盖范围:
全球
运营商:
太空探索技术公司
运营商所在国:
美国
制造商(研发单位):
太空探索技术公司
制造商所在国:
美国
使用方式:
暂无
Satellite Introduction
星链(Starlink)计划是由太空探索技术公司(SpaceX)提出的一个巨型低轨卫星互联网星座项目,计划在2019年至2024年间在太空搭建由约1.2万颗卫星组成的“星链”网络,其中1584颗将部署在地球上空550千米处的近地轨道,并从2020年开始工作。该卫星仍在工作。
2D Orbit Map
3D Orbit Map
Orbit Altitude Analysis Chart
Orbit Inclination Analysis Chart
Orbit Comprehensive Analysis Chart
View Comprehensive Chart